FLOCK 1E-4

Last updated on June 24, 2016, 1:36 a.m. UTC

1 40724U 98067GG  16175.71548561  .09227620  12232-4  34073-3 0  9996
2 40724  51.6076 338.4730 0023788 237.2598 129.2091 16.41376137 54378

Satellite is not in orbit.